Waarnemingen

Advertentie
Mijn weer
Milford-Haven, Groot Brittannië (3604): temperatuur & dauwpunt: 18.10.2017 08:00:00 - 24.10.2017 08:00:00 (BST)Milford-Haven, Groot Brittannië (3604): temperatuur -20cm & temperatuur -100cm: 18.10.2017 08:00:00 - 24.10.2017 08:00:00 (BST)Milford-Haven, Groot Brittannië (3604): windsnelheid & windstoten: 18.10.2017 08:00:00 - 24.10.2017 08:00:00 (BST)Milford-Haven, Groot Brittannië (3604): windrichting: 18.10.2017 08:00:00 - 24.10.2017 08:00:00 (BST)Milford-Haven, Groot Brittannië (3604): luchtdruk: 18.10.2017 08:00:00 - 24.10.2017 08:00:00 (BST)Milford-Haven, Groot Brittannië (3604): zicht: 18.10.2017 08:00:00 - 24.10.2017 08:00:00 (BST)Milford-Haven, Groot Brittannië (3604): neerslag: 18.10.2017 08:00:00 - 24.10.2017 08:00:00 (BST)
Datum & Tijd tt [°C] td [°C] tt -20cm [°C] tt -100cm [°C] ff [km/u] ff [kn] fx [km/u] fx [kn] dd ppp [hPa] vv [km] rr [mm]
24.10.2017 08:00:00 14,8 14,6 - - 24 13 54 29 ZW 1014,3 3,3 -
24.10.2017 07:00:00 14,7 14,5 - - 28 15 55 30 ZW 1014,0 6 0,0
24.10.2017 06:00:00 14,7 14,6 - - 26 14 50 27 ZW 1014,1 8 0,2
24.10.2017 05:00:00 14,6 14,5 - - 31 17 48 26 ZZW 1014,2 2,2 0,6
24.10.2017 04:00:00 14,0 13,8 - - 28 15 - - ZZW 1014,7 0,1 0,2
24.10.2017 03:00:00 13,7 13,5 - - 22 12 - - ZZW 1015,6 0,4 0,0
24.10.2017 02:00:00 13,7 13,6 - - 16 9 - - ZZW 1016,4 0,3 0,0
24.10.2017 01:00:00 13,4 13,2 - - 16 9 - - ZW 1016,5 1,9 0,0
24.10.2017 00:00:00 13,7 13,5 - - 15 8 - - ZW 1016,1 7 0,0
23.10.2017 23:00:00 13,7 13,5 - - 16 9 - - W 1016,2 13 0,0
23.10.2017 22:00:00 14,0 13,7 - - 22 12 - - WZW 1016,2 7 0,0
23.10.2017 21:00:00 14,2 13,9 - - 15 8 - - WZW 1016,0 12 0,0
23.10.2017 20:00:00 13,9 13,5 - - 13 7 - - ZZW 1015,9 0,4 0,2
23.10.2017 19:00:00 13,3 12,7 - - 13 7 - - ZW 1015,8 14 0,0
23.10.2017 18:00:00 12,7 11,8 - - 13 7 - - ZW 1015,7 20 0,0
23.10.2017 17:00:00 12,4 12,0 - - 15 8 - - ZW 1015,6 30 0,0
23.10.2017 16:00:00 12,9 12,6 - - 13 7 - - WZW 1016,0 17 0,0
23.10.2017 15:00:00 13,6 13,4 - - 13 7 - - WZW 1015,6 0,2 0,0
23.10.2017 14:00:00 14,2 14,0 - - 11 6 - - WZW 1015,3 21 0,0
23.10.2017 13:00:00 14,2 14,0 - - 15 8 - - WZW 1015,3 9 0,4
23.10.2017 12:00:00 14,0 13,7 - - 16 9 - - WZW 1014,9 0,5 0,0
23.10.2017 11:00:00 14,2 14,0 - - 11 6 - - WZW 1014,2 18 0,0
23.10.2017 10:00:00 14,1 13,8 - - 16 9 - - WZW 1014,2 3,0 -
23.10.2017 09:00:00 13,9 13,7 - - 15 8 - - WZW 1014,0 14 -
23.10.2017 08:00:00 13,9 13,7 - - 15 8 - - WZW 1013,7 9 -
23.10.2017 07:00:00 13,8 13,6 - - 16 9 - - ZW 1013,6 2,4 -
23.10.2017 06:00:00 13,7 13,5 - - 26 14 48 26 ZZW 1013,9 8 -
23.10.2017 05:00:00 13,2 12,9 - - 34 18 48 26 ZZW 1014,4 2,5 0,6
23.10.2017 04:00:00 12,9 12,4 - - 29 16 46 25 ZZW 1014,7 3,0 0,4
23.10.2017 03:00:00 12,8 11,8 - - 24 13 - - ZW 1015,8 5 0,4
23.10.2017 02:00:00 13,2 11,8 - - 18 10 - - ZW 1016,3 20 0,0
23.10.2017 01:00:00 13,1 12,1 - - 21 11 - - ZW 1016,8 16 0,0
23.10.2017 00:00:00 13,0 11,5 - - 16 9 - - ZW 1017,5 6 0,0
22.10.2017 23:00:00 13,0 11,1 - - 18 10 - - WZW 1017,9 2,9 0,0
22.10.2017 22:00:00 13,0 10,5 - - 22 12 - - WZW 1018,3 23 0,0
22.10.2017 21:00:00 12,9 9,9 - - 26 14 - - W 1018,6 26 -
22.10.2017 20:00:00 12,6 9,6 - - 29 16 - - W 1018,9 29 0,0
22.10.2017 19:00:00 12,4 9,4 - - 29 16 - - W 1018,7 30 0,0
22.10.2017 18:00:00 12,4 9,0 - - 24 13 48 26 W 1018,0 30 0,0
22.10.2017 17:00:00 12,5 8,0 - - 26 14 48 26 W 1018,0 30 0,0
22.10.2017 16:00:00 13,5 7,2 - - 28 15 52 28 WNW 1017,9 40 0,0
22.10.2017 15:00:00 13,7 8,3 - - 31 17 57 31 W 1017,8 35 0,0
22.10.2017 14:00:00 13,7 8,3 - - 29 16 61 33 WNW 1017,4 30 0,0
22.10.2017 13:00:00 12,4 9,0 - - 29 16 57 31 WNW 1017,5 27 0,2
22.10.2017 12:00:00 11,2 9,6 - - 28 15 57 31 W 1017,2 9 0,6
22.10.2017 11:00:00 12,0 9,0 - - 29 16 54 29 WNW 1016,5 29 0,2
22.10.2017 10:00:00 12,0 8,0 12,4 14,0 35 19 55 30 W 1016,2 8 0,0
22.10.2017 09:00:00 10,3 7,4 - - 24 13 48 26 WNW 1015,8 22 0,0
22.10.2017 08:00:00 10,5 5,6 - - 31 17 59 32 WNW 1015,0 30 0,0
22.10.2017 07:00:00 9,8 3,0 - - 37 20 68 37 WNW 1014,2 30 0,0
22.10.2017 06:00:00 9,8 3,8 - - 35 19 55 30 WNW 1013,8 30 0,0
22.10.2017 05:00:00 10,1 4,5 - - 29 16 59 32 WNW 1013,3 25 0,0
22.10.2017 04:00:00 10,2 5,6 - - 31 17 63 34 W 1012,3 25 -
22.10.2017 03:00:00 10,3 5,3 - - 41 22 65 35 WNW 1011,8 28 0,0
22.10.2017 02:00:00 10,5 5,2 - - 34 18 65 35 WNW 1010,9 30 0,0
22.10.2017 01:00:00 10,5 5,2 - - 35 19 68 37 WNW 1009,9 30 0,0
22.10.2017 00:00:00 11,2 5,8 - - 34 18 70 38 WNW 1009,0 26 0,0
21.10.2017 23:00:00 11,0 6,9 - - 35 19 76 41 WNW 1007,9 25 0,0
21.10.2017 22:00:00 11,8 7,1 - - 37 20 72 39 WNW 1006,1 30 0,0
21.10.2017 21:00:00 12,1 7,7 - - 39 21 67 36 WNW 1004,7 29 0,0
21.10.2017 20:00:00 12,3 7,9 - - 39 21 72 39 W 1003,3 25 0,0
21.10.2017 19:00:00 12,0 9,1 - - 42 23 72 39 W 1001,7 9 0,0
21.10.2017 18:00:00 12,8 8,8 - - 34 18 80 43 W 1000,0 20 0,0
21.10.2017 17:00:00 13,2 10,9 - - 44 24 78 42 W 997,9 16 0,0
21.10.2017 16:00:00 13,3 10,8 - - 54 29 81 44 W 996,6 15 0,0
21.10.2017 15:00:00 12,8 9,8 - - 54 29 80 43 W 995,4 15 0,0
21.10.2017 14:00:00 12,3 9,9 - - 54 29 87 47 WZW 994,3 9 0,2
21.10.2017 13:00:00 12,9 9,5 - - 55 30 89 48 WZW 993,5 9 0,0
21.10.2017 12:00:00 12,9 9,3 - - 54 29 89 48 WZW 992,9 10 0,2
21.10.2017 11:00:00 12,9 9,5 - - 44 24 81 44 WZW 992,7 9 0,0
21.10.2017 10:00:00 12,8 9,7 13,0 14,0 39 21 76 41 WZW 992,8 11 0,0
21.10.2017 09:00:00 12,2 9,7 - - 37 20 70 38 WZW 992,6 12 0,2
21.10.2017 08:00:00 12,7 10,2 - - 39 21 76 41 ZW 991,8 10 0,2
21.10.2017 07:00:00 12,6 10,7 - - 46 25 76 41 ZZW 991,9 10 -
21.10.2017 06:00:00 12,9 10,3 - - 46 25 78 42 ZW 992,4 9 -
21.10.2017 05:00:00 13,1 10,1 - - 54 29 85 46 ZZW 992,4 11 -
21.10.2017 04:00:00 13,2 9,6 - - 50 27 83 45 ZZW 993,4 13 -
21.10.2017 03:00:00 13,5 9,6 - - 52 28 80 43 ZZW 994,2 15 -
21.10.2017 02:00:00 14,0 10,2 - - 50 27 70 38 ZZW 995,1 13 -
21.10.2017 01:00:00 13,8 11,6 - - 42 23 63 34 ZZW 995,8 12 -
21.10.2017 00:00:00 14,1 12,6 - - 44 24 63 34 ZZW 996,3 12 -
20.10.2017 23:00:00 13,7 12,8 - - 37 20 54 29 Z 996,7 13 -
20.10.2017 22:00:00 13,4 12,8 - - 35 19 63 34 ZZW 997,2 17 -
20.10.2017 21:00:00 14,3 14,0 - - 48 26 81 44 Z 997,0 4,9 2,4
20.10.2017 20:00:00 13,6 13,2 - - 42 23 74 40 ZZO 997,9 1,4 4,4
20.10.2017 19:00:00 13,6 12,5 - - 42 23 76 41 ZZO 999,1 2,4 1,4
20.10.2017 18:00:00 13,5 11,4 - - 44 24 65 35 ZZO 1000,8 6 0,2
20.10.2017 17:00:00 13,6 10,0 - - 35 19 54 29 ZZO 1002,8 22 0,0
20.10.2017 16:00:00 13,5 9,5 - - 39 21 54 29 Z 1004,0 29 0,0
20.10.2017 15:00:00 13,0 9,1 - - 35 19 48 26 Z 1005,3 27 0,0
20.10.2017 14:00:00 12,5 7,1 - - 28 15 - - Z 1005,7 30 0,0
20.10.2017 13:00:00 13,6 6,8 - - 21 11 - - ZZW 1006,5 35 0,0
20.10.2017 12:00:00 12,8 5,9 - - 13 7 - - WZW 1006,9 35 0,0
20.10.2017 11:00:00 11,5 6,0 - - 16 9 - - W 1006,8 30 0,0
20.10.2017 10:00:00 10,7 6,0 13,2 14,2 16 9 - - W 1006,7 29 0,0
20.10.2017 09:00:00 10,1 6,3 - - 21 11 - - W 1006,2 28 0,0
20.10.2017 08:00:00 9,4 6,9 - - 18 10 - - WNW 1005,1 26 0,0
20.10.2017 07:00:00 9,7 7,2 - - 29 16 55 30 WNW 1003,9 28 0,0
20.10.2017 06:00:00 9,9 7,8 - - 29 16 55 30 WNW 1002,8 25 0,0
20.10.2017 05:00:00 9,9 8,3 - - 34 18 57 31 WNW 1001,3 26 0,0
20.10.2017 04:00:00 10,2 9,3 - - 31 17 63 34 WNW 999,8 5 0,4
20.10.2017 03:00:00 10,6 9,8 - - 42 23 67 36 WNW 997,8 8 0,2
20.10.2017 02:00:00 11,8 11,0 - - 37 20 67 36 WNW 995,7 19 0,2
20.10.2017 01:00:00 12,5 12,0 - - 24 13 46 25 NW 993,6 10 0,0
20.10.2017 00:00:00 12,6 12,2 - - 28 15 - - WNW 991,5 40 0,0
19.10.2017 23:00:00 12,5 12,1 - - 9 5 - - WNW 989,9 19 0,2
19.10.2017 22:00:00 13,2 12,8 - - 8 4 - - Z 988,8 26 0,2
19.10.2017 21:00:00 12,7 12,3 - - 35 19 55 30 ZO 988,4 1,3 0,4
19.10.2017 20:00:00 12,8 11,4 - - 39 21 68 37 ZZO 989,1 7 0,0
19.10.2017 19:00:00 13,0 11,0 - - 37 20 67 36 ZZO 990,1 20 0,0
19.10.2017 18:00:00 14,0 13,4 - - 41 22 61 33 ZO 990,6 12 1,0
19.10.2017 17:00:00 13,8 13,2 - - 37 20 55 30 ZO 991,4 3,4 1,6
19.10.2017 16:00:00 14,1 12,2 - - 37 20 61 33 ZO 992,8 16 0,0
19.10.2017 15:00:00 14,1 12,6 - - 34 18 48 26 ZO 994,6 21 1,0
19.10.2017 14:00:00 14,4 12,5 - - 31 17 52 28 ZZO 996,1 13 0,2
19.10.2017 13:00:00 14,6 13,0 - - 31 17 52 28 ZO 997,2 12 0,0
19.10.2017 12:00:00 14,5 12,5 - - 35 19 48 26 ZO 998,8 21 0,0
19.10.2017 11:00:00 14,2 12,4 - - 34 18 50 27 ZO 1000,2 20 0,0
19.10.2017 10:00:00 13,9 11,8 13,4 14,4 29 16 - - ZO 1000,8 29 0,0
19.10.2017 09:00:00 14,0 12,2 - - 28 15 46 25 ZO 1001,3 26 0,0
19.10.2017 08:00:00 14,1 12,3 - - 31 17 48 26 ZZO 1001,7 24 0,0
19.10.2017 07:00:00 14,1 12,3 - - 24 13 - - Z 1002,4 27 0,0
19.10.2017 06:00:00 14,0 12,4 - - 24 13 - - ZZO 1002,9 28 0,0
19.10.2017 05:00:00 14,0 12,7 - - 24 13 - - Z 1003,6 27 0,0
19.10.2017 04:00:00 13,9 12,6 - - 26 14 - - ZZO 1004,4 26 0,0
19.10.2017 03:00:00 13,9 12,9 - - 24 13 - - Z 1005,2 20 0,0
19.10.2017 02:00:00 13,8 13,1 - - 22 12 - - Z 1006,1 16 0,8
19.10.2017 01:00:00 14,3 13,1 - - 24 13 - - Z 1006,4 21 0,0
19.10.2017 00:00:00 14,1 13,0 - - 24 13 - - Z 1006,5 23 0,0
18.10.2017 23:00:00 14,2 13,1 - - 24 13 - - Z 1006,9 22 0,0
18.10.2017 22:00:00 14,6 13,0 - - 26 14 - - Z 1007,4 23 0,0
18.10.2017 21:00:00 14,1 13,1 - - 26 14 - - ZO 1007,5 9 0,0
18.10.2017 20:00:00 13,9 13,0 - - 22 12 - - ZO 1007,7 9 0,0
18.10.2017 19:00:00 13,8 12,8 - - 22 12 - - ZO 1007,9 10 0,0
18.10.2017 18:00:00 14,0 12,8 - - 21 11 - - ZO 1008,0 13 0,0
18.10.2017 17:00:00 14,2 12,9 - - 18 10 - - ZO 1008,5 14 0,0
18.10.2017 16:00:00 14,1 12,5 - - 16 9 - - ZZO 1008,8 16 0,0
18.10.2017 15:00:00 13,4 12,7 - - 18 10 - - ZO 1009,0 14 0,0
18.10.2017 14:00:00 12,5 12,3 - - 16 9 - - OZO 1009,4 2,0 0,2
18.10.2017 13:00:00 12,0 11,6 - - 26 14 - - OZO 1009,8 3,1 0,0
18.10.2017 12:00:00 12,0 10,9 - - 29 16 46 25 OZO 1010,1 6 0,0
18.10.2017 11:00:00 11,9 10,3 - - 18 10 - - OZO 1010,3 26 0,0
18.10.2017 10:00:00 11,4 9,3 13,2 14,5 16 9 - - O 1010,7 28 0,0
18.10.2017 09:00:00 10,1 8,0 - - 15 8 - - O 1010,7 30 0,0
18.10.2017 08:00:00 9,8 7,5 - - 11 6 - - ONO 1010,9 30 0,0

tt = temperatuur
td = dauwpunt
tt -20cm = temperatuur -20cm
tt -100cm = temperatuur -100cm
ff = windsnelheid
fx = windstoten
dd = windrichting
ppp = luchtdruk
vv = zicht
rr = neerslag

Weerstations in de omgeving